Weather History for KMKG - July, 2013

Change the Weather History Date:

Saturday, July 13, 2013

  Actual Average Record
Temperature  
Mean Temperature 74 °F 71 °F  
Max Temperature 89 °F 81 °F 93 °F (1995)
Min Temperature 59 °F 62 °F 45 °F (1940)
Degree Days  
Heating Degree Days 0 0  
Month to date heating degree days 2 4  
Since 1 June heating degree days 54 70  
Since 1 July heating degree days 2 4  
Cooling Degree Days 9 7  
Month to date cooling degree days 78 82  
Year to date cooling degree days 238 216  
Since 1 June cooling degree days 178 187  
Growing Degree Days 24 (Base 50)    
Moisture  
Dew Point 57 °F    
Average Humidity 61    
Maximum Humidity 90    
Minimum Humidity 31    
Precipitation  
Precipitation 0.00 in 0.07 in 1.13 in (1981)
Month to date precipitation 0.60 0.93  
Year to date precipitation 27.62 15.75  
Snow  
Snow 0.00 in 0.00 in - ()
Month to date snowfall 0.0 0.0  
Since 1 June snowfall 0.0 0.0  
Since 1 July snowfall 0.0 0.0  
Snow Depth 0.00 in    
Sea Level Pressure  
Sea Level Pressure 30.16 in    
Wind  
Wind Speed 5 mph (ESE)    
Max Wind Speed 14 mph    
Max Gust Speed 30 mph    
Visibility 10 miles    
Events      
T = Trace of Precipitation, MM = Missing Value Source: NWS Daily Summary

Daily Weather History Graph

Daily Weather History Graph

Search for Another Location

Airport or City:

Trip Planner

Search our weather history database for the weather conditions in past years. The results will help you decide how hot, cold, wet, or windy it might be!

Date:

Astronomy

Jul. 13, 2013 Rise Set
Actual Time 6:17 AM EDT 9:23 PM EDT
Civil Twilight 5:42 AM EDT 9:57 PM EDT
Nautical Twilight 4:58 AM EDT 10:41 PM EDT
Astronomical Twilight 4:05 AM EDT 11:34 PM EDT
Moon 11:43 AM EDT (7/13) 11:53 PM EDT (7/13)
Length of Visible Light 16h 15m
Length of Day
15h 06m
Waxing Crescent, 25% of the Moon is Illuminated
Jul 13
Waxing Crescent
Jul 15
First Quarter
Jul 22
Full
Jul 29
Last Quarter
Aug 6
New

Hourly Weather History & Observations

Time (EDT) Temp. Heat Index Dew Point Humidity Pressure Visibility Wind Dir Wind Speed Gust Speed Precip Events Conditions
12:55 AM 64.0 °F - 55.9 °F 75% 30.13 in 10.0 mi Calm Calm - N/A   Clear
1:55 AM 61.0 °F - 55.9 °F 83% 30.13 in 10.0 mi ESE 3.5 mph - N/A   Clear
2:55 AM 61.0 °F - 55.0 °F 81% 30.13 in 10.0 mi Calm Calm - N/A   Clear
3:55 AM 62.1 °F - 55.0 °F 78% 30.15 in 10.0 mi Calm Calm - N/A   Clear
4:55 AM 60.1 °F - 55.0 °F 83% 30.16 in 10.0 mi Calm Calm - N/A   Clear
5:55 AM 59.0 °F - 55.0 °F 87% 30.17 in 10.0 mi Calm Calm - N/A   Clear
6:55 AM 61.0 °F - 57.0 °F 87% 30.16 in 10.0 mi SE 9.2 mph - N/A   Clear
7:55 AM 66.9 °F - 59.0 °F 76% 30.17 in 10.0 mi Calm Calm - N/A   Partly Cloudy
8:55 AM 72.0 °F - 59.0 °F 64% 30.19 in 10.0 mi SSE 3.5 mph - N/A   Partly Cloudy
9:55 AM 77.0 °F - 60.1 °F 56% 30.19 in 10.0 mi SE 5.8 mph - N/A   Clear
10:55 AM 79.0 °F - 57.9 °F 48% 30.19 in 10.0 mi SSE 6.9 mph - N/A   Partly Cloudy
11:55 AM 82.0 °F 81.7 °F 57.0 °F 42% 30.18 in 10.0 mi East 5.8 mph - N/A   Mostly Cloudy
12:55 PM 84.0 °F 83.0 °F 55.9 °F 38% 30.19 in 10.0 mi SE 11.5 mph - N/A   Mostly Cloudy
1:55 PM 84.9 °F 83.3 °F 54.0 °F 34% 30.18 in 10.0 mi ESE 12.7 mph 16.1 mph N/A   Mostly Cloudy
2:55 PM 86.0 °F 84.2 °F 54.0 °F 33% 30.16 in 10.0 mi SE 6.9 mph - N/A   Partly Cloudy
3:55 PM 87.1 °F 85.1 °F 54.0 °F 32% 30.16 in 10.0 mi ENE 9.2 mph - N/A   Partly Cloudy
4:55 PM 86.0 °F 84.0 °F 53.1 °F 32% 30.15 in 10.0 mi Variable 3.5 mph - N/A   Clear
5:55 PM 84.0 °F 83.3 °F 57.0 °F 40% 30.15 in 10.0 mi WNW 11.5 mph - N/A   Clear
6:55 PM 82.0 °F 81.7 °F 57.0 °F 42% 30.14 in 10.0 mi WNW 8.1 mph - N/A   Clear
7:55 PM 82.0 °F 82.1 °F 59.0 °F 45% 30.15 in 10.0 mi NW 5.8 mph - N/A   Partly Cloudy
8:55 PM 79.0 °F - 60.1 °F 52% 30.15 in 10.0 mi NNW 5.8 mph - N/A   Clear
9:55 PM 77.0 °F - 59.0 °F 54% 30.16 in 10.0 mi East 3.5 mph - N/A   Clear
10:55 PM 73.9 °F - 57.9 °F 57% 30.18 in 10.0 mi ESE 4.6 mph - N/A   Clear
11:55 PM 72.0 °F - 57.9 °F 61% 30.18 in 10.0 mi ESE 4.6 mph - N/A   Clear